Яптик-Сале

Россия / Ямало-Ненецкий автономный округ     69°23′08″N   72°31′33″E
темп.,
°C
ветер,
м/с
пор.,
м/с
влажн.,
%
обл.,
%
осадки,
мм/ч
давл.,
гПа
погр.,
м
17 августа, ср
ср1723:00+7ссз101578100 0.0 1014968
02:00+7ссз101583100 0.1 1014905
05:00+6с101685100 0.1 1015812
08:00+7с111680100 0.1 1016758
11:00+8с11167799 0.1 1017741
14:00+9с11157583 0.0 1019730
17:00+9с10147460 0.0 1020672
20:00+7с81381100 0.0 1021494
18 августа, чт
чт1823:00+6с81385100 0.0 1022447
02:00+6с7128697 0.0 1023363
05:00+5с6108996 0.0 1024288
08:00+7с6775100 0.0 1025362
11:00+9с5662100 0.0 1025551
14:00+10ссв4562100 0.0 1025737
17:00+7ссв3476100 0.0 1025129
20:00+6ссв2292100 0.9 102483
19 августа, пт
пт1923:00+7ююз1295100 2.4 102363
02:00+7ю3594100 0.1 1022128
05:00+9ююз5885100 0.1 1020187
08:00+11юз5980100 0.0 1018242
11:00+17зюз796799 0.2 1016467
14:00+21з9115869 0.0 1013802
17:00+18з91383100 0.1 1012727
20:00+12зсз71392100 0.9 1012529
20 августа, сб
сб2023:00+9ссз81388100 0.9 1013712
02:00+8ссз91689100 0.2 1014910
05:00+7ссз111782100 0.3 1016931
08:00+8ссз121878100 0.0 1017905
11:00+10с12186979 0.0 10191020
14:00+10с12166688 0.0 1021955
17:00+10с1013615 0.0 1022841
20:00+7с813705 0.0 1024445
21 августа, вс
вс2123:00+5с5118630 0.0 1025227
02:00+3с49930 0.0 1026160
05:00+4ссз47900 0.0 1027137
08:00+8с45650 0.0 1028381
11:00+11с335292 0.0 1028742
14:00+14сз244597 0.0 1027975
17:00+14зсз2446100 0.0 1027923
20:00+12зсз1160100 0.0 102716